User: anonymous   Login
Location: Aalsum
(53.3404°N, 6.0062°E)
Time: 13:34:57
(UTC+00:00)
Language:

Cosmos 2026 Rocket - Orbit

View from above orbital plane
View from above orbital plane
View from above satellite
View from above satellite

Ground track
Ground track

The orbit data is extracted from the following two-line orbital elements,

1 20046U 89042B   23160.57862636  .00000166  00000-0  14798-3 0  9995
2 20046  82.9357 115.7554 0043446  66.0747 294.4953 13.78347844709794
Epoch (UTC): 09 June 2023 13:53:13
Eccentricity: 0.0043446
inclination: 82.9357°
perigee height: 938 km
apogee height: 1001 km
right ascension of ascending node: 115.7554°
argument of perigee: 66.0747°
revolutions per day: 13.78347844
mean anomaly at epoch: 294.4953°
orbit number at epoch: 70979

The dashed part of the orbit path shows where the satellite is in the earth's shadow,  

DLR